Lapse_Rate
6.5 6.5 6.5 6.4 5.6 6.1 7.0 7.1 6.1 5.5 5.4 6.1 6.0 6.1 5.6 5.6 5.5 5.8 6.0 6.3 6.2 6.1 6.3 6.5 6.2 6.4 6.3 6.6 6.8 6.8 6.6 6.6 6.5 6.5 6.5 6.5 6.4 6.4 6.2 5.9 5.9 5.9 5.8 5.7 5.6 5.5 5.4 5.5 5.7
6.6 6.4 6.2 5.8 6.0 6.9 7.5 7.1 6.1 5.6 5.3 5.9 5.8 6.0 5.7 5.3 5.3 5.6 5.9 6.1 6.1 6.0 5.7 6.1 6.3 6.1 6.2 6.3 6.5 6.6 6.7 6.6 6.5 6.4 6.3 6.3 6.3 6.3 6.2 6.1 5.9 5.9 5.9 5.7 5.5 5.3 5.4 5.6 5.5
6.5 6.2 5.8 5.4 6.0 6.8 7.1 6.4 5.8 6.0 5.9 5.7 5.4 5.8 5.2 4.7 5.4 5.5 5.9 5.9 6.0 6.1 5.9 5.7 6.0 6.1 6.1 6.2 6.2 6.4 6.5 6.5 6.4 6.4 6.4 6.4 6.2 6.2 6.1 6.1 6.0 6.0 5.9 5.7 5.5 5.2 5.4 5.5 5.6
6.4 6.1 5.8 5.7 6.4 6.5 6.2 5.9 6.0 5.7 5.1 5.8 5.6 5.2 4.5 5.3 5.0 5.3 5.4 5.7 5.7 5.8 6.0 5.9 5.8 5.9 6.0 6.0 6.0 6.3 6.4 6.3 6.3 6.4 6.4 6.3 6.2 6.1 6.1 6.1 6.0 5.9 5.9 5.8 5.6 5.4 5.4 5.5 5.6
6.3 6.0 5.4 5.6 6.2 5.9 6.2 6.1 6.0 5.9 5.6 5.2 5.0 5.3 4.6 4.4 5.1 5.2 5.2 5.3 5.6 5.7 5.9 6.0 5.9 5.9 5.9 5.8 6.0 6.0 6.1 6.5 6.4 6.4 6.4 6.3 6.2 6.1 6.0 6.0 6.0 5.9 5.8 5.7 5.5 5.5 5.3 5.4 5.5
6.3 5.9 5.7 6.7 6.7 6.1 6.3 6.3 6.1 5.9 5.7 5.4 5.1 5.6 5.2 4.5 5.2 5.5 5.4 5.3 5.2 5.4 5.6 5.8 5.8 5.7 5.9 5.9 5.8 5.9 5.9 5.9 6.4 6.5 6.4 6.2 6.3 6.2 6.0 5.8 5.8 5.9 5.8 5.9 5.7 5.6 5.4 5.5 5.5
6.3 5.8 6.3 6.6 6.3 5.9 6.2 6.2 6.0 6.1 5.9 5.0 5.9 5.4 4.8 3.8 6.1 5.8 5.4 5.3 5.1 5.1 5.5 5.5 5.8 5.6 5.6 5.7 5.9 5.9 5.8 5.9 6.0 6.3 6.4 6.4 6.3 6.1 6.1 6.0 5.7 5.7 5.7 5.7 5.7 5.6 5.5 5.4 5.6
6.4 6.2 6.1 6.0 6.4 5.7 6.3 5.9 6.0 5.9 6.1 5.9 5.8 4.7 4.3 4.8 5.0 5.4 5.0 5.1 5.0 5.1 5.1 5.6 5.6 5.6 5.6 5.5 5.6 5.9 6.0 5.9 5.9 6.1 6.3 6.3 6.3 6.3 6.2 6.2 6.1 5.8 5.6 5.6 5.6 5.7 5.5 5.5 5.6
6.3 6.2 6.2 5.9 5.7 5.3 5.9 5.8 5.9 6.4 6.7 6.4 6.4 6.2 5.3 5.9 5.7 5.1 5.1 4.9 4.9 4.7 4.6 4.9 5.5 5.6 5.6 5.5 5.5 5.6 5.9 6.1 6.0 5.9 6.1 6.3 6.2 6.1 6.0 5.9 6.2 6.1 5.7 5.5 5.3 5.4 5.5 5.7 5.6
6.4 6.2 5.9 5.9 5.6 5.6 5.7 6.2 6.1 5.8 6.1 6.1 5.9 5.7 5.4 5.7 5.6 5.7 5.8 5.6 5.1 5.0 4.8 4.4 4.8 5.4 5.4 5.6 5.1 5.3 5.7 6.0 6.1 6.3 6.2 6.2 6.3 6.3 6.1 6.0 5.7 5.9 5.8 5.4 5.2 5.2 5.3 5.8 5.7
6.4 6.1 6.1 5.8 5.6 5.7 6.1 5.9 6.1 5.6 5.3 5.0 5.4 5.0 4.9 4.8 4.7 4.8 4.9 5.0 5.3 5.2 5.2 4.9 4.7 5.0 5.3 5.4 5.4 4.9 4.9 5.6 6.2 6.3 6.2 6.3 6.3 6.2 6.2 5.9 5.9 5.7 5.9 5.8 5.3 5.2 5.2 5.8 6.2
6.4 6.1 5.9 5.7 5.7 6.0 5.9 5.8 5.3 4.7 4.5 4.5 4.0 4.1 4.1 4.3 4.4 4.4 4.5 4.8 4.8 5.1 5.2 5.2 5.0 4.9 5.4 5.6 5.2 4.9 4.8 5.2 5.5 5.9 6.3 6.3 6.5 6.2 5.9 5.9 5.8 5.6 5.8 5.9 5.4 5.2 5.2 5.5 5.9
6.2 6.0 5.9 5.8 5.6 6.0 5.6 5.3 4.4 4.2 3.7 4.0 3.7 3.6 3.6 3.7 3.8 4.3 4.8 5.0 5.2 5.4 5.3 5.4 5.4 5.2 5.2 5.7 5.8 5.4 5.4 5.4 5.6 5.6 5.9 6.0 6.3 6.3 5.9 5.9 5.8 6.0 5.6 5.9 5.2 4.9 5.3 5.2 5.5
6.0 5.8 5.7 5.7 5.7 5.9 5.3 5.2 3.7 4.1 3.8 3.6 3.6 3.5 3.5 3.5 4.0 4.8 5.6 5.9 5.9 6.0 5.8 5.7 5.5 5.6 5.6 5.6 5.9 5.7 5.6 5.3 5.6 5.8 6.0 5.8 6.3 6.2 6.1 5.8 4.7 5.7 5.0 5.1 5.0 4.7 4.6 4.7 5.0
5.9 5.8 5.8 5.8 5.9 5.5 5.0 5.5 3.8 3.3 3.5 3.5 3.3 3.3 3.5 3.9 5.2 6.0 6.4 6.8 7.0 7.1 6.6 6.3 5.8 5.7 5.6 5.8 5.9 5.9 5.4 5.2 5.4 5.7 6.0 6.1 5.9 5.8 5.5 6.0 5.8 5.8 5.2 5.3 4.9 4.9 4.9 4.8 5.2
5.6 5.5 5.2 4.9 5.4 5.2 4.5 5.0 3.8 3.7 3.6 3.3 3.1 3.4 3.8 4.7 5.9 6.3 6.9 7.2 7.3 7.5 7.6 7.1 6.2 5.9 5.6 5.6 5.7 6.0 5.7 5.2 5.2 5.6 5.4 5.8 5.9 5.7 6.0 5.8 5.8 5.8 5.5 5.8 5.6 5.3 5.3 5.4 4.7
5.2 5.0 5.3 5.0 4.9 4.7 4.1 4.6 4.5 3.6 3.9 3.9 3.5 4.1 4.6 5.9 6.4 6.7 7.0 7.2 7.2 7.1 7.0 7.2 6.9 6.0 5.5 5.5 5.6 5.8 6.2 5.0 5.3 5.2 5.1 5.5 5.6 5.9 5.9 5.4 5.9 6.1 6.1 5.9 6.1 5.7 5.3 5.6 5.7
5.3 5.0 5.2 4.9 4.8 4.3 4.5 5.0 4.3 3.0 3.0 3.9 3.9 4.4 5.6 6.2 6.4 6.7 6.9 7.1 7.2 7.2 7.0 6.8 6.8 6.6 5.8 5.7 5.4 5.6 5.8 5.7 5.3 5.0 5.3 5.5 5.6 5.9 5.7 5.2 5.7 6.4 6.6 6.4 6.5 6.6 5.8 5.2 4.9
5.3 5.4 5.0 5.0 5.0 5.0 4.5 5.2 4.4 3.5 3.1 4.4 4.5 5.2 6.1 6.4 6.2 6.6 6.8 6.9 7.3 7.4 7.0 6.5 6.6 6.5 6.4 6.1 5.8 5.5 5.9 5.9 5.0 5.5 5.4 5.7 5.8 5.4 5.2 6.0 6.0 6.4 6.5 6.7 7.1 7.1 6.2 5.2 5.2
5.2 5.1 5.1 5.1 4.8 4.4 4.6 5.2 4.5 3.9 4.2 4.3 4.8 5.6 5.9 6.3 6.5 6.7 6.6 6.6 7.1 7.6 7.3 6.7 6.5 6.6 6.6 6.6 6.3 5.9 5.8 6.2 6.0 5.6 6.0 5.7 6.0 6.0 6.0 6.1 6.1 6.7 7.0 7.2 7.2 6.9 6.5 5.3 5.1
5.4 5.3 5.3 4.9 4.6 4.5 4.1 4.5 4.3 4.5 4.5 4.7 4.9 5.7 5.8 6.1 6.4 6.4 6.4 6.4 6.8 7.2 7.1 6.8 6.6 6.9 6.9 6.9 6.8 6.3 6.0 5.9 6.2 6.1 6.3 6.5 6.3 6.6 7.2 6.9 6.9 7.1 7.4 7.4 7.2 6.5 6.3 6.0 5.7
5.2 5.5 5.4 4.7 3.7 4.6 3.2 4.3 4.4 4.0 4.7 5.0 4.6 5.3 5.5 5.9 6.2 6.2 6.4 6.4 6.6 6.9 7.0 7.0 7.3 7.5 7.4 7.4 7.1 6.7 6.1 6.0 6.1 6.2 6.1 6.3 6.7 6.8 7.1 7.0 7.1 7.4 7.7 7.5 7.3 6.6 6.2 6.0 5.8
5.2 5.3 5.4 4.3 3.2 2.7 3.2 3.1 4.6 4.6 4.6 4.2 4.2 5.1 5.4 6.0 6.3 6.4 6.3 6.4 6.4 6.6 6.7 6.7 6.9 7.1 7.4 7.5 7.3 7.0 6.4 5.8 6.0 6.4 6.4 6.3 6.7 7.0 7.2 7.5 7.1 7.6 7.6 7.6 6.9 6.4 6.0 6.3 5.9
5.4 5.7 5.0 4.5 3.0 3.6 3.9 4.0 5.6 5.2 5.0 4.3 4.7 5.1 5.5 6.1 6.2 6.3 6.2 6.4 6.4 6.5 6.5 6.4 6.5 6.7 7.0 7.3 7.4 6.8 6.4 5.8 5.6 6.1 6.6 6.7 7.0 7.3 7.3 7.2 6.8 7.6 7.6 7.5 6.9 6.7 6.2 6.3 6.1
5.2 5.5 6.0 5.4 5.0 6.0 3.6 3.6 5.1 5.4 5.0 4.6 4.9 5.0 5.4 6.3 6.4 6.4 6.4 6.3 6.5 6.4 6.3 6.3 6.3 6.5 6.8 7.0 7.2 6.8 6.2 5.7 5.3 5.6 6.2 6.4 6.9 7.1 7.2 7.2 7.0 7.6 7.4 7.4 7.1 6.7 6.6 6.0 6.0
4.7 4.8 5.6 5.5 6.3 6.1 4.5 4.1 5.5 5.4 4.6 4.3 5.0 5.3 5.8 6.5 6.6 6.5 6.6 6.5 6.5 6.5 6.3 6.2 6.3 6.3 6.6 6.8 6.7 6.5 5.8 5.3 5.2 5.5 5.8 6.1 6.6 7.0 7.3 7.5 7.3 7.6 7.4 7.3 6.7 6.7 6.4 6.8 6.8
4.6 4.0 4.4 3.7 3.1 3.4 4.6 4.8 4.8 4.8 4.4 4.5 5.1 5.3 5.9 6.4 6.7 6.6 6.7 6.6 6.5 6.2 6.0 5.9 5.9 6.2 6.4 6.5 6.3 5.9 5.5 5.3 5.3 5.7 5.9 6.2 6.6 7.0 7.4 7.6 7.7 7.9 7.4 7.2 6.7 6.6 6.3 6.4 6.4
4.7 4.4 4.1 3.4 5.1 5.4 6.4 5.9 5.5 4.7 4.2 5.0 5.1 5.1 5.8 6.3 6.7 6.8 6.9 6.9 6.6 6.4 6.2 6.0 5.9 5.9 6.2 6.1 5.7 5.4 5.3 5.3 5.4 5.6 5.8 6.2 6.5 6.7 7.0 7.2 7.4 7.3 7.0 6.6 6.3 6.2 6.5 6.3 6.0
4.7 4.1 4.5 4.4 4.2 5.4 5.1 6.5 5.7 4.7 4.4 4.4 4.7 5.1 5.9 6.3 6.6 6.6 6.7 6.7 6.5 6.1 6.1 6.1 6.0 5.9 5.7 5.7 5.4 5.3 5.4 5.5 5.6 5.7 5.9 6.1 6.3 6.5 6.6 6.7 6.6 6.4 6.3 6.2 6.1 5.9 5.8 6.6 6.0
4.8 4.5 4.4 4.7 4.3 4.0 3.8 4.4 5.3 5.0 4.6 4.5 4.8 5.3 6.0 6.1 6.2 6.2 6.2 6.0 6.0 6.1 6.1 6.2 6.0 5.5 5.6 5.7 5.7 5.6 5.6 5.6 5.9 6.0 6.1 6.3 6.5 6.5 6.5 6.5 6.3 6.3 6.3 5.9 5.4 5.6 5.9 5.9 6.4
Wind_Speed
12 4 4 5 5 5 10 2 3 4 2 3 2 5 7 8 6 4 6 14 17 15 18 20 26 26 23 14 14 15 15 16 17 17 18 18 18 18 18 16 14 15 16 18 18 18 16 14 14
11 4 4 2 5 9 7 3 4 2 6 6 7 7 10 9 4 4 9 17 16 14 17 20 26 25 24 23 15 16 18 16 18 18 18 18 19 19 19 18 16 16 18 18 17 16 15 14 15
7 5 3 4 5 8 6 7 5 2 3 4 4 3 6 4 8 6 12 14 15 14 17 18 25 25 25 22 19 16 17 18 17 19 19 19 19 20 20 19 19 19 18 18 18 16 16 15 15
3 4 3 6 11 8 3 2 3 7 5 1 3 10 4 6 3 9 13 14 12 13 17 18 23 24 23 23 19 21 14 15 17 18 20 21 20 22 22 21 20 19 19 19 18 17 16 15 15
4 3 6 6 8 5 4 4 5 9 8 5 2 6 8 7 7 13 15 15 14 12 15 16 20 24 24 21 20 18 16 10 14 16 19 21 21 21 21 23 21 20 20 18 18 20 18 16 15
4 4 6 8 2 3 4 3 8 9 8 8 8 11 9 13 13 15 17 15 15 13 13 14 16 19 22 21 19 18 16 15 12 11 16 19 22 23 22 23 24 21 20 20 19 20 19 17 14
8 5 6 7 7 5 1 2 4 7 9 5 5 7 5 8 16 17 17 16 14 14 13 16 17 17 19 20 19 17 16 15 15 12 8 9 18 24 27 25 24 24 22 21 20 20 20 19 16
4 3 4 3 6 4 3 3 2 7 9 6 2 5 6 16 19 19 17 15 13 13 13 13 17 17 17 18 18 18 13 14 15 14 10 7 7 12 18 21 26 26 26 24 21 21 20 18 17
2 5 6 5 4 2 2 4 5 5 12 14 12 13 9 11 15 15 16 15 14 11 13 15 13 17 18 15 15 16 14 10 12 10 9 9 9 12 14 15 19 26 27 25 23 22 20 19 17
4 4 4 4 4 6 8 10 11 9 14 17 18 13 9 15 14 13 14 14 15 16 16 13 14 14 17 16 12 15 12 9 7 10 7 4 6 10 9 10 18 19 19 19 22 21 20 19 13
1 3 4 1 4 6 9 13 14 16 17 17 10 11 14 16 16 15 14 14 16 17 14 15 15 16 14 10 13 9 9 8 7 6 7 8 5 5 9 7 3 8 18 13 17 17 15 14 12
4 3 4 2 2 5 12 13 14 15 17 6 7 10 13 16 15 16 17 16 16 17 18 16 15 15 14 12 8 9 4 8 4 5 4 4 3 1 3 3 4 5 6 6 11 11 13 12 13
6 3 3 7 8 12 11 15 16 16 14 4 7 10 11 13 16 15 16 16 16 16 18 18 16 15 14 13 8 7 7 5 8 6 6 2 3 4 2 2 3 3 8 7 4 3 4 7 10
3 9 10 5 6 9 10 15 15 11 2 6 8 10 11 13 15 16 16 16 16 17 17 18 17 16 14 13 14 9 7 9 7 7 5 5 4 3 4 2 5 6 9 8 9 12 9 8 8
4 8 7 4 1 5 8 17 12 4 3 7 10 10 11 12 14 15 16 17 17 16 17 17 17 16 15 16 13 11 8 7 5 4 7 5 6 4 4 4 3 6 11 12 9 9 9 7 5
4 3 8 5 2 1 4 12 9 4 5 11 11 10 11 12 13 14 15 17 16 17 17 17 15 17 17 14 12 10 9 6 5 5 7 7 3 7 5 4 5 6 8 9 9 8 8 8 9
6 8 12 8 6 3 5 15 3 4 10 12 11 10 11 12 13 14 15 16 17 16 16 16 16 16 14 12 11 13 13 8 4 7 5 7 5 6 6 5 6 5 6 8 8 8 8 6 6
9 8 7 14 3 11 18 25 21 17 9 12 11 10 11 13 14 15 16 16 16 16 14 14 12 14 12 9 10 10 8 7 7 6 5 7 7 7 7 6 7 6 5 5 7 10 9 8 6
8 10 16 17 7 10 12 21 20 15 14 12 11 9 12 14 14 14 14 15 15 16 14 13 13 13 10 7 7 7 10 6 6 5 5 7 5 6 9 5 6 7 6 8 8 8 9 6 8
11 15 17 6 5 16 16 21 15 14 12 10 6 9 12 14 14 14 14 14 14 14 14 12 12 12 10 6 6 5 7 9 9 2 4 6 5 6 5 6 6 7 7 10 10 12 6 6 11
12 12 12 13 19 11 11 12 5 1 4 6 8 7 11 12 14 14 14 14 14 13 13 13 12 12 10 8 5 6 8 9 8 7 5 4 3 4 6 7 8 9 8 7 9 11 12 7 8
6 3 9 15 11 5 5 6 6 6 7 8 7 9 12 12 12 13 14 13 15 14 13 12 11 12 9 9 4 7 7 8 7 5 4 4 4 5 5 6 8 9 9 9 8 9 9 9 8
7 13 14 9 3 9 6 3 3 4 8 8 4 11 12 12 12 13 12 13 15 13 12 12 11 10 9 7 5 4 7 7 7 4 4 3 3 5 7 7 8 7 7 9 10 10 11 8 9
11 10 4 1 2 3 6 2 6 3 1 1 6 12 13 13 13 12 12 12 13 13 12 12 11 10 9 7 6 6 7 8 6 5 3 3 4 5 8 7 6 5 5 6 5 4 1 2 2
7 8 4 3 2 3 6 6 8 4 2 3 9 12 12 11 12 12 13 13 14 14 13 11 11 10 9 7 7 7 6 6 6 5 3 4 3 3 7 6 6 5 7 8 7 7 6 5 4
3 4 2 7 6 11 8 6 0 3 2 5 5 9 10 11 11 12 12 12 13 14 13 13 11 9 8 8 8 6 6 3 3 5 4 3 3 4 6 6 7 9 10 9 7 7 7 7 7
2 2 2 3 2 4 4 5 5 3 4 9 8 11 10 10 10 11 11 11 12 13 13 12 12 10 9 9 7 7 7 6 5 6 6 4 5 5 7 7 8 11 11 10 11 9 10 9 9
3 6 2 3 5 7 5 6 7 2 9 13 10 10 10 11 10 10 11 12 12 12 11 11 10 9 9 8 7 6 7 7 6 7 8 7 6 7 7 8 11 11 12 11 12 11 13 11 8
3 3 2 1 2 3 7 5 3 2 7 12 11 10 10 11 10 10 11 11 11 10 9 9 8 9 9 8 8 8 8 9 8 8 7 7 8 8 9 10 11 12 13 12 14 14 15 13 11
1 3 4 3 4 4 3 8 6 3 5 8 10 10 9 9 9 9 10 10 10 10 9 10 9 8 8 8 9 9 9 9 9 9 9 9 10 11 12 12 13 14 14 13 14 15 11 15 14
Wind_Direction
304 284 268 227 235 237 267 263 21 238 219 64 328 268 324 325 306 347 42 8 355 355 356 355 353 352 344 302 211 191 196 200 195 192 191 194 192 187 186 184 177 173 171 162 159 156 152 159 158
315 293 232 226 248 239 268 236 219 342 14 316 276 259 249 271 40 351 343 353 350 354 3 1 355 355 357 348 239 200 199 204 203 197 198 195 196 193 190 186 178 178 173 170 163 161 165 165 158
287 262 237 230 243 250 298 30 15 82 347 338 299 319 322 13 59 15 4 348 347 353 1 7 1 1 3 7 351 240 207 207 208 205 204 201 199 195 193 187 186 184 182 176 169 168 167 167 162
227 206 228 245 244 256 287 342 345 295 279 151 357 278 132 63 29 9 345 345 348 348 355 8 3 1 1 4 4 11 261 231 219 213 212 208 204 200 199 191 187 189 185 181 179 168 166 172 171
223 256 239 242 262 267 296 302 296 283 289 269 337 270 267 99 44 3 346 338 339 344 352 356 4 360 355 356 3 3 5 307 241 230 218 218 212 210 203 194 190 187 186 187 174 167 164 167 166
203 283 235 255 318 185 247 312 289 274 287 308 294 309 280 91 26 354 340 337 334 335 348 347 350 359 349 349 351 354 360 5 352 272 240 226 218 212 207 203 194 190 185 186 176 168 167 169 169
266 236 285 294 288 281 173 343 275 317 294 307 330 273 281 181 1 342 334 332 330 339 342 345 342 348 347 344 341 346 345 350 353 344 337 279 233 226 216 205 201 194 188 186 180 175 172 169 169
272 266 250 230 323 307 93 301 327 293 302 349 306 262 302 354 345 335 329 324 323 336 334 342 335 340 342 336 329 337 333 342 337 332 347 328 294 248 238 221 207 200 194 186 179 176 172 171 171
274 240 260 266 273 52 133 295 304 262 270 277 277 276 314 347 334 331 333 328 330 329 333 330 334 331 333 329 326 328 327 339 325 324 317 315 253 243 234 227 221 212 196 191 181 173 171 171 177
249 261 358 29 336 289 303 287 300 291 282 281 281 278 341 334 324 327 329 328 329 331 329 326 328 325 324 320 326 317 314 316 306 327 318 270 295 260 265 262 214 212 191 193 184 180 174 176 182
196 292 40 315 297 303 293 289 282 276 274 281 305 307 316 319 319 318 319 317 318 320 322 325 324 319 315 314 317 309 306 298 286 268 313 309 281 279 245 259 179 210 187 194 184 177 177 189 195
267 256 273 339 283 286 287 295 279 270 276 350 312 316 309 313 314 317 316 316 311 314 313 323 320 316 310 306 302 300 291 290 288 281 267 308 280 202 284 228 200 170 178 196 187 181 186 188 201
250 300 287 293 277 284 291 277 273 279 275 237 288 291 297 305 309 310 313 307 314 311 312 310 318 312 309 303 293 292 287 278 276 277 265 207 301 287 260 195 165 123 176 138 90 20 243 191 202
340 297 295 298 284 280 284 284 282 266 64 247 256 278 294 303 309 312 313 315 311 309 308 310 309 311 304 301 294 286 278 269 275 285 283 288 255 280 305 272 190 164 185 178 184 175 189 233 208
300 296 261 205 292 306 330 279 231 222 187 259 270 294 304 312 315 315 316 314 312 307 307 305 309 308 308 299 292 285 265 254 244 262 275 248 279 261 248 252 260 184 181 181 189 182 187 176 231
258 255 330 153 209 94 343 283 322 126 259 277 294 298 309 315 319 316 322 314 310 308 307 308 307 310 308 305 297 285 273 233 238 229 270 250 240 266 280 257 241 217 193 188 183 190 203 200 190
215 307 310 325 165 237 230 288 296 234 262 281 284 297 306 316 321 325 321 313 313 310 307 306 306 304 301 311 304 291 274 247 226 239 204 254 262 276 277 269 254 231 203 194 186 188 199 190 184
297 306 296 304 276 278 290 276 276 276 271 265 281 291 314 324 327 325 319 317 316 308 305 304 308 307 302 309 311 295 259 245 228 221 207 242 220 252 244 243 255 247 209 179 188 188 187 199 178
288 280 286 297 8 311 276 284 282 281 266 249 259 295 314 322 324 320 321 320 317 309 307 314 312 309 306 313 327 323 323 253 218 218 221 231 246 229 253 244 260 260 229 202 182 194 189 194 128
275 283 295 317 189 323 296 288 286 276 252 247 276 299 320 320 321 320 321 319 317 312 311 315 314 308 306 311 321 303 305 297 304 255 242 240 228 264 278 271 243 251 244 218 190 195 185 189 174
280 277 303 298 319 278 306 272 200 250 190 202 238 327 323 319 317 318 320 322 318 314 317 317 317 313 308 316 314 311 306 254 248 233 221 220 49 316 313 305 304 259 240 235 216 205 208 196 189
290 37 306 307 327 307 19 296 231 172 213 214 242 335 325 318 318 317 320 322 317 316 318 320 321 316 317 317 325 328 309 299 314 328 9 38 28 358 347 317 301 290 290 223 226 217 209 197 192
261 325 301 314 271 320 150 254 222 171 238 227 268 331 326 324 315 318 320 320 316 320 322 326 324 321 319 318 354 345 318 307 307 289 286 36 1 9 357 356 327 321 308 283 225 195 203 194 190
297 301 301 166 311 264 162 245 276 167 354 264 315 329 327 316 316 319 323 327 321 323 328 331 329 325 328 330 9 7 324 314 310 312 346 21 358 3 11 353 5 360 15 10 13 37 68 153 200
328 297 313 278 234 307 166 254 292 106 108 308 313 317 311 308 317 323 328 329 328 330 335 333 332 331 335 343 19 7 330 323 318 338 12 14 11 6 13 8 29 34 44 42 41 49 53 53 71
12 304 33 299 313 308 195 245 354 106 158 285 279 297 298 315 317 323 327 329 329 331 334 335 335 336 344 4 22 10 356 354 345 11 34 46 49 40 36 46 52 60 57 55 55 62 53 85 64
86 241 50 273 117 275 234 243 134 166 228 329 324 310 310 313 313 322 328 335 335 335 336 338 341 345 0 15 20 22 22 27 26 35 40 39 58 66 61 56 58 58 58 65 62 66 59 60 65
280 140 214 148 310 302 304 296 275 227 328 317 321 311 311 310 320 331 337 343 343 336 336 345 351 355 5 19 25 39 41 44 50 51 62 65 60 63 67 70 71 69 69 66 74 67 64 67 46
156 216 195 295 232 298 311 312 95 179 318 305 307 308 306 315 331 341 351 342 332 332 338 353 2 7 19 23 33 46 50 50 50 56 54 54 65 69 72 73 79 79 79 70 76 69 75 76 66
293 277 228 237 158 231 281 275 125 184 298 290 300 303 308 323 342 354 344 341 338 341 348 0 8 17 25 33 39 45 51 53 56 55 53 55 60 60 63 66 68 70 67 70 76 73 73 81 59